Location: Bannatyne
(13.0833°N, 59.5333°W)
Time: 15:46:43
(UTC+00:00)

Daily predictions for brighter satellites

Satellite Brightness Start Highest point End
(mag) Time Altitude Azimuth Time Altitude Azimuth Time Altitude Azimuth
IUS-13 SRM-1 2.7 21:46:18 10° NW 21:48:51 62° NNE 21:58:00 10° ESE
NOSS 3-2 (C) 3.7 21:48:46 10° S 21:53:51 39° ESE 21:59:05 10° NE
Cosmos 1356 3.8 21:52:06 10° SSW 21:55:30 68° W 21:58:53 10° N
Envisat 3.3 21:57:37 10° SSE 22:02:24 42° ENE 22:07:09 10° N
Cosmos 2058 Rocket 3.8 22:00:42 10° SSW 22:04:59 57° W 22:09:16 10° N
CORIOLIS 4.3 22:00:11 10° S 22:05:31 82° WSW 22:10:52 10° NNW
Cosmos 44 3.9 22:01:09 10° S 22:06:03 41° ESE 22:10:46 10° NE
Cosmos 1703 4.5 22:03:32 10° NE 22:06:29 21° E 22:09:26 10° SE
ATLAS 5 CENTAUR R/B 2.9 22:02:57 10° SW 22:07:04 40° SE 22:19:11 12° E
Okean-O 2.9 22:09:24 10° S 22:13:48 75° WSW 22:18:12 10° NNW
Cosmos 1908 3.7 22:13:37 10° SSW 22:17:29 65° W 22:21:21 10° N
ASTEX 1 4.0 22:14:38 10° N 22:19:32 64° W 22:24:28 10° SSW
Cosmos 2285 Rocket 4.0 22:13:21 10° N 22:19:45 80° ENE 22:26:06 10° SSE
COSMOS 2406 4.1 22:23:24 10° NNE 22:28:06 26° ENE 22:32:45 10° SE
ATLAS 3B R/B 2.8 22:21:30 10° S 22:28:15 54° ESE 22:34:47 10° NE
FengYun 1-2 T 4.2 22:24:09 10° SSE 22:29:45 66° ENE 22:35:19 10° N
ADEOS Rocket 4.3 22:26:09 10° NE 22:31:24 22° E 22:36:19 10° SE
USA 215 4.3 22:25:14 10° SSE 22:31:27 47° SW 22:37:41 10° NW
Ariane H10 4.0 22:23:38 10° WSW 22:37:23 37° S 22:40:30 16° SE
EO 1 Delta rocket 3.9 22:32:52 10° SSE 22:37:50 57° E 22:42:21 10° N
CENTAUR R/B 2.1 22:34:05 10° SSW 22:39:23 72° ESE 22:45:13 10° NNE
Atlas Centaur 2 2.3 22:32:56 10° WNW 22:39:24 71° SSW 22:43:23 17° SE
Cosmos 2297 3.6 22:37:32 10° S 22:43:09 75° ESE 22:48:49 10° NNE
Ariane Rocket 4.3 22:46:47 22° NE 22:46:47 22° NE 22:49:16 10° NNE
BREEZE-M DEB (TANK) 3.7 22:32:26 10° SW 22:46:57 80° SE 22:49:45 26° NE
Sylda 5 4.4 22:45:30 10° SW 22:47:47 16° S 22:50:36 11° SE
SWIFT 2.6 22:43:53 10° WSW 22:48:04 56° SSE 22:49:19 39° ESE
Lacrosse 5 rocket 2.1 22:44:32 10° N 22:47:47 32° NE 22:47:47 32° NE
Meteor 1-11 4.2 22:43:53 10° N 22:49:39 70° E 22:55:26 10° SSE
Cosmos 468 Rocket 4.0 22:47:40 10° S 22:52:52 58° ESE 22:56:32 19° NNE
Cosmos 1727 Rocket 4.2 22:47:39 10° S 22:53:50 71° W 22:59:59 10° N
Cosmos 1242 Rocket 3.7 22:51:17 10° NNW 22:54:46 44° W 22:58:14 10° SSW
Cosmos 1570 Rocket 4.4 22:50:41 10° SSE 22:55:34 39° E 22:55:57 38° E
GPS 2-12 Rocket1 3.8 22:52:05 10° WNW 22:56:22 36° N 22:57:12 33° NNE
CSL-04 Rocket 3.8 22:55:31 10° S 23:01:04 80° WSW 23:06:36 10° NNW
CZ-4 R/B 2.8 22:58:59 10° S 23:02:48 40° W 23:06:42 10° NNW
CZ-4C R/B 3.8 22:55:17 10° NW 23:03:14 56° WSW 23:11:23 10° S
Cosmos 1605 Rocket 3.9 22:57:10 10° N 23:03:18 85° W 23:09:22 10° S
SEDSat Delta rocket 3.7 22:59:43 10° WSW 23:04:38 51° NNW 23:05:54 39° NNE
NOAA 11 4.0 23:06:29 10° SSE 23:11:55 72° ENE 23:17:20 10° N
YAOGAN 1 3.6 23:08:00 10° S 23:12:08 46° W 23:16:16 10° NNW
deb Ariane 4.2 23:10:24 10° WSW 23:13:41 50° S 23:15:39 38° ESE
Intelsat 5-2 Rocket 4.4 23:11:04 10° WNW 23:15:44 89° NNE 23:20:58 35° ESE
Cosmos 1300 4.4 23:12:57 10° SSW 23:16:24 33° W 23:19:51 10° NNW
USA 234 3.4 23:12:12 22° NNE 23:16:37 72° NW 23:23:07 10° SW
Cosmos 1000 Rocket 4.5 23:17:49 10° S 23:23:57 79° W 23:30:08 10° N
Cosmos 1777 Rocket 4.0 23:19:24 10° NNW 23:23:59 70° N 23:23:59 70° N
ASTRO E2 4.0 23:23:19 10° WNW 23:26:20 38° WSW 23:26:20 38° WSW
Cosmos 1763 Rocket 3.9 23:30:26 10° SSW 23:35:40 62° WNW 23:36:18 57° NW
Cosmos 2369 Rocket 4.0 23:33:24 10° S 23:34:58 19° S 23:34:58 19° S
CZ-3B R/B 4.5 23:17:57 10° WNW 23:40:09 64° NNE 23:46:52 46° ENE
